Regional Weather Roundup
Issued by NWS

Home | Current Version | Previous Version | Text Only | Print | Product List | Glossary On
Versions: 1 2 3 4 5 6 7 8 9 10 11 12 13 14 15 16 17 18 19 20 21 22 23 24 25 26 27 28 29 30 31 32 33 34 35 36 37 38 39 40 41 42 43 44 45 46 47 48 49 50
000
ASUS44 KOUN 061610
RWROK

WEATHER ROUNDUP FOR OKLAHOMA
NATIONAL WEATHER SERVICE NORMAN OK
1000 AM CST FRI MAR 06 2015

NOTE: "FAIR" INDICATES FEW OR NO CLOUDS BELOW 12,000 FEET WITH NO
      SIGNIFICANT WEATHER AND/OR OBSTRUCTIONS TO VISIBILITY.

OKZ001>007-009>012-014-015-017-061700-
NORTHWEST OKLAHOMA AND THE PANHANDLE

CITY           SKY/WX    TMP DP  RH WIND       PRES   REMARKS
GAGE           SUNNY     43  28  55 SW12      30.38S
ENID/WOODRING  SUNNY     43  30  61 S17       30.43F
$$

OKZ016-021>023-033>039-044-045-061700-
SOUTHWEST OKLAHOMA

CITY           SKY/WX    TMP DP  RH WIND       PRES   REMARKS
LAWTON/REGL    SUNNY     38  25  59 SW8       30.53F WCI  32
LAWTON/FT SILL SUNNY     38  26  61 SW9       30.51S WCI  31
FREDERICK      SUNNY     40  26  57 SW14      30.49S WCI  32
CLINTON        SUNNY     35  25  66 S15       30.46S WCI  25
HOBART         SUNNY     37  25  61 SW15      30.49S WCI  28
ALTUS AFB      SUNNY     39  28  65 S9        30.50S WCI  33
$$

OKZ018>020-024>031-061700-
CENTRAL OKLAHOMA

CITY           SKY/WX    TMP DP  RH WIND       PRES   REMARKS
OKLAHOMA CITY  SUNNY     42  22  44 S17       30.49S
OKC/WILEY POST SUNNY     41  23  48 SW17      30.49R
OKC/TINKER AFB SUNNY     39  21  48 SW14      30.48S WCI  31
STILLWATER     SUNNY     44  21  40 SW18      30.46F
GUTHRIE        SUNNY     44  22  41 SW14      30.48R
$$

OKZ008-013-054>072-061700-
NORTHEAST OKLAHOMA

CITY           SKY/WX    TMP DP  RH WIND       PRES   REMARKS
TULSA          SUNNY     42  20  41 SW15G23   30.50R
TULSA/JONES    SUNNY     42  20  41 SW13G22   30.52R
PONCA CITY     SUNNY     41  24  51 SW14      30.44S
BARTLESVILLE   SUNNY     42  22  44 SW13      30.48S
MUSKOGEE       SUNNY     41  22  46 S14       30.56F
$$

OKZ032-040>043-046>053-073>077-061700-
SOUTH CENTRAL/SOUTHEAST OKLAHOMA

CITY           SKY/WX    TMP DP  RH WIND       PRES   REMARKS
ARDMORE/DWNTWN SUNNY     41  23  48 SW6       30.57S
MCALESTER      MOSUNNY   40  24  53 SW14      30.57S WCI  32
$$



USA.gov is the U.S. government's official web portal to all federal, state and local government web resources and services.